TIANLIAN 2-01

导读

**TIANLIAN 2-01(天链二号01星)** 是中国于2019年3月31日发射的第二代地球同步轨道数据中继卫星,由中国航天科技集团五院抓总研制。它基于东方红四号卫星平台,主要为航天器提供数据中继与测控服务,支持空间站、载人飞船以及中低轨道卫星的天地通信,替代传统地面测控网,大幅提升数据传输效率与通信质量,是我国天链中继卫星系统升级的首星,被誉为“卫星的卫星”。

基本信息
目录编号:
44076
目录名称:
TIANLIAN 2-01
国际标识:
2019-017A
轨道中心:
EARTH
卫星名称:
TIANLIAN 2-01
卫星全名:
--
卫星状态:
在轨 (已飞行2636 天)
发射日期:
2019-03-31 UTC
国别 :
中国 (CN)
星等 :
--
轨道信息
数据来源 国际轨道数据 AOE轨道数据
星历时间 2026-06-18T12:43:59+0800
12小时前
查看轨道信息
2026-06-18T09:00:00+0800
16小时前
查看轨道信息
半长轴 42164.981km 42164.896km
偏心率 0.0000735 0.0000622
轨道倾角 0.544° 0.543°
近地点辐角 32.943° 24.943°
升交点赤经 83.111° 83.127°
平近点角 298.388° 250.226°
近地点 35783.744km 35784.136km
远地点 35789.944km 35789.382km
周期 1436.110分钟 1436.105分钟
每日圈数 1.002709 1.002712
详细信息
使用方式:
暂无
2D轨道图
3D轨道图
轨道高度分析图
轨道倾角分析图
轨道综合分析图
查看轨道综合分析图